Durango, CO

3:04 PM MDT on July 27, 2017 (GMT -0600)
Durango-La Plata County

Weather History for KDRO - November, 2010

Change the Weather History Date:

Wednesday, November 3, 2010

  Actual Average Record
Temperature  
Mean Temperature 47 °F 40 °F  
Max Temperature 66 °F 55 °F 72 °F (1983)
Min Temperature 28 °F 25 °F 14 °F (1982)
Degree Days  
Heating Degree Days 18 25  
Month to date heating degree days 74  
Since 1 July heating degree days 862  
Cooling Degree Days 0 0  
Month to date cooling degree days 0  
Year to date cooling degree days 243  
Moisture  
Dew Point 27 °F    
Average Humidity 54    
Maximum Humidity 85    
Minimum Humidity 22    
Precipitation  
Precipitation 0.00 in 0.06 in 0.60 in (1990)
Month to date precipitation 0.19  
Year to date precipitation 13.41  
Sea Level Pressure  
Sea Level Pressure 30.43 in    
Wind  
Wind Speed 4 mph (NNW)    
Max Wind Speed 9 mph    
Max Gust Speed -    
Visibility 10 miles    
Events      
T = Trace of Precipitation, MM = Missing Value Source: NWS Daily Summary

Daily Weather History Graph

Daily Weather History Graph

Search for Another Location

Airport or City:

Trip Planner

Search our weather history database for the weather conditions in past years. The results will help you decide how hot, cold, wet, or windy it might be!

Date:

Astronomy

Nov. 03, 2010 Rise Set
Actual Time 7:37 AM MDT 6:11 PM MDT
Civil Twilight 7:10 AM MDT 6:38 PM MDT
Nautical Twilight 6:39 AM MDT 7:09 PM MDT
Astronomical Twilight 6:09 AM MDT 7:39 PM MDT
Moon 4:43 AM MDT (11/3) 4:20 PM MDT (11/3)
Length of Visible Light 11h 27m
Length of Day
10h 33m
Waning Crescent, 8% of the Moon is Illuminated
Nov 3
Waning Crescent
Nov 5
New
Nov 13
First Quarter
Nov 21
Full
Nov 28
Last Quarter

Hourly Weather History & Observations

Time (MDT) Temp. Windchill Dew Point Humidity Pressure Visibility Wind Dir Wind Speed Gust Speed Precip Events Conditions
12:53 AM 36.0 °F - 27.0 °F 70% 30.41 in 10.0 mi Calm Calm - N/A   Clear
1:53 AM 30.0 °F 22.4 °F 25.0 °F 82% 30.42 in 10.0 mi ENE 8.1 mph - N/A   Clear
2:53 AM 33.1 °F 28.7 °F 26.1 °F 75% 30.40 in 10.0 mi NE 4.6 mph - N/A   Clear
3:53 AM 33.1 °F 30.0 °F 26.1 °F 75% 30.40 in 10.0 mi NNW 3.5 mph - N/A   Clear
4:53 AM 28.0 °F 24.2 °F 24.1 °F 85% 30.42 in 10.0 mi East 3.5 mph - N/A   Clear
5:53 AM 28.9 °F 25.2 °F 25.0 °F 85% 30.44 in 10.0 mi North 3.5 mph - N/A   Clear
6:53 AM 30.0 °F 26.5 °F 25.0 °F 82% 30.47 in 10.0 mi NE 3.5 mph - N/A   Clear
7:53 AM 28.9 °F - 24.1 °F 82% 30.53 in 10.0 mi Calm Calm - N/A   Clear
8:53 AM 36.0 °F - 28.0 °F 73% 30.53 in 10.0 mi Calm Calm - N/A   Clear
9:53 AM 46.0 °F 44.8 °F 30.0 °F 54% 30.51 in 10.0 mi ENE 3.5 mph - N/A   Clear
10:53 AM 53.1 °F - 30.0 °F 41% 30.48 in 10.0 mi Calm Calm - N/A   Clear
11:53 AM 57.9 °F - 30.0 °F 35% 30.47 in 10.0 mi WNW 5.8 mph - N/A   Clear
12:53 PM 63.0 °F - 26.1 °F 25% 30.40 in 10.0 mi West 8.1 mph - N/A   Clear
1:53 PM 64.0 °F - 27.0 °F 25% 30.40 in 10.0 mi SW 9.2 mph - N/A   Clear
2:53 PM 66.0 °F - 28.0 °F 24% 30.35 in 10.0 mi SSW 6.9 mph - N/A   Clear
3:53 PM 66.0 °F - 26.1 °F 22% 30.35 in 10.0 mi SW 9.2 mph - N/A   Clear
4:53 PM 64.9 °F - 25.0 °F 22% 30.37 in 10.0 mi SSW 6.9 mph - N/A   Clear
5:53 PM 61.0 °F - 27.0 °F 27% 30.39 in 10.0 mi SW 5.8 mph - N/A   Clear
6:53 PM 55.9 °F - 28.0 °F 34% 30.43 in 10.0 mi WSW 4.6 mph - N/A   Clear
7:53 PM 48.0 °F - 28.0 °F 46% 30.48 in 10.0 mi NE 3.5 mph - N/A   Clear
8:53 PM 44.1 °F 39.0 °F 28.0 °F 53% 30.46 in 10.0 mi North 9.2 mph - N/A   Clear
9:53 PM 43.0 °F 39.5 °F 28.9 °F 58% 30.43 in 10.0 mi NNE 5.8 mph - N/A   Clear
10:53 PM 39.9 °F - 28.0 °F 63% 30.42 in 10.0 mi Calm Calm - N/A   Clear
11:53 PM 37.9 °F 34.4 °F 28.0 °F 68% 30.40 in 10.0 mi North 4.6 mph - N/A   Clear